KM4NDI Weather Reports


Display with metric or nautical units.
time (UTC)temp
F
wind
direction
speed
MPH
gust
MPH
rain 1hr
in
rain 24hr
in
rain mn
in
humidity
%
barometer
mb
20260510185516 95 125 3.0 4.0 0.00 0.00 0.00 46 1018.4
20260510184539 95 134 1.0 3.0 0.00 0.00 0.00 47 1018.3
20260510183522 93 263 1.0 2.0 0.00 0.00 0.00 49 1018.4
20260510182525 94 248 0.0 2.0 0.00 0.00 0.00 46 1018.4
20260510181528 93 251 1.0 3.0 0.00 0.00 0.00 53 1018.4
20260510180531 95 270 1.0 2.0 0.00 0.00 0.00 48 1018.7
20260510175537 98 180 2.0 4.0 0.00 0.00 0.00 45 1018.7
20260510174520 96 180 1.0 2.0 0.00 0.00 0.00 49 1018.9
20260510173522 94 139 1.0 3.0 0.00 0.00 0.00 51 1019.1
20260510172526 95 266 2.0 2.0 0.00 0.00 0.00 49 1019.2
20260510171603 94 246 1.0 2.0 0.00 0.00 0.00 52 1019.4
20260510170520 94 292 1.0 2.0 0.00 0.00 0.00 54 1019.4
20260510165517 93 133 0.0 3.0 0.00 0.00 0.00 56 1019.4
20260510164520 94 76 1.0 3.0 0.00 0.00 0.00 56 1019.5
20260510163523 94 224 1.0 3.0 0.00 0.00 0.00 56 1019.5
20260510162526 93 250 1.0 2.0 0.00 0.00 0.00 55 1019.5
20260510161530 92 125 2.0 4.0 0.00 0.00 0.00 58 1019.5
20260510160532 88 259 0.0 1.0 0.00 0.00 0.00 64 1019.7
20260510155517 91 104 1.0 2.0 0.00 0.00 0.00 60 1019.5
20260510154521 89 267 1.0 2.0 0.00 0.00 0.00 61 1019.4
20260510153524 90 234 1.0 4.0 0.00 0.00 0.00 62 1019.6
20260510152526 88 0.0 0.0 0.00 0.00 0.00 65 1019.7
20260510151530 88 287 1.0 3.0 0.00 0.00 0.00 65 1019.7
20260510150515 85 105 1.0 2.0 0.00 0.00 0.00 69 1019.7
20260510145538 83 75 2.0 4.0 0.00 0.00 0.00 74 1019.7
20260510144521 82 0.0 0.0 0.00 0.00 0.00 76 1019.9
20260510143524 82 0.0 0.0 0.00 0.00 0.00 78 1019.9
20260510142527 81 0.0 0.0 0.00 0.00 0.00 80 1020.0
20260510141531 81 0.0 0.0 0.00 0.00 0.00 82 1020.1
20260510140516 79 0.0 0.0 0.00 0.00 0.00 86 1020.1
20260510135518 76 0.0 0.0 0.00 0.00 0.00 93 1020.1
20260510134522 76 0.0 0.0 0.00 0.00 0.00 94 1020.1
20260510133519 75 0.0 2.0 0.00 0.00 0.00 98 1019.9
20260510132516 75 0.0 0.0 0.00 0.00 0.00 99 1019.7
20260510131531 75 0.0 0.0 0.00 0.00 0.00 99 1019.5
20260510130556 73 0.0 1.0 0.00 0.00 0.00 99 1019.5
20260510125519 73 0.0 0.0 0.00 0.00 0.00 99 1019.4
20260510124522 73 0.0 0.0 0.00 0.00 0.00 99 1019.2
20260510123525 73 0.0 0.0 0.00 0.00 0.00 99 1019.0
20260510122528 72 0.0 0.0 0.00 0.00 0.00 99 1018.9
20260510121531 72 0.0 0.0 0.00 0.00 0.00 99 1018.8
20260510120537 71 0.0 0.0 0.00 0.00 0.00 99 1018.5
20260510115519 71 0.0 0.0 0.00 0.00 0.00 99 1018.3
20260510114523 71 0.0 0.0 0.00 0.00 0.00 99 1018.2
20260510113606 71 0.0 0.0 0.00 0.00 0.00 99 1018.1
20260510112609 70 0.0 0.0 0.00 0.00 0.00 99 1018.0
20260510111532 70 0.0 0.0 0.00 0.00 0.00 99 1017.7
20260510110558 70 0.0 0.0 0.00 0.00 0.00 99 1017.5
20260510105520 70 0.0 0.0 0.00 0.00 0.00 99 1017.4
20260510104523 70 0.0 0.0 0.00 0.00 0.00 99 1017.2
20260510103527 71 0.0 0.0 0.00 0.00 0.00 99 1017.2
20260510102524 71 0.0 0.0 0.00 0.00 0.00 99 1017.2
20260510101515 71 0.0 0.0 0.00 0.00 0.00 99 1017.2
20260510100518 71 0.0 0.0 0.00 0.00 0.00 99 1017.0
20260510095515 70 0.0 0.0 0.00 0.00 0.00 99 1016.8
20260510094525 69 0.0 0.0 0.00 0.00 0.00 99 1016.7
20260510093527 70 0.0 0.0 0.00 0.00 0.00 99 1016.5
20260510092551 70 0.0 0.0 0.00 0.00 0.00 99 1016.5
20260510091516 69 0.0 0.0 0.00 0.00 0.00 99 1016.5
20260510090519 69 0.0 0.0 0.00 0.00 0.00 99 1016.5
20260510085522 69 0.0 0.0 0.00 0.00 0.00 99 1016.4
20260510084525 69 0.0 0.0 0.00 0.00 0.00 99 1016.2
20260510083548 69 0.0 0.0 0.00 0.00 0.00 99 1016.1
20260510082531 68 0.0 0.0 0.00 0.00 0.00 99 1016.1
20260510081516 68 0.0 0.0 0.00 0.00 0.00 99 1016.0
20260510080519 68 0.0 0.0 0.00 0.00 0.00 99 1015.9
20260510075542 68 0.0 0.0 0.00 0.00 0.00 99 1015.8
20260510074546 68 0.0 0.0 0.00 0.00 0.00 99 1015.8
20260510073528 69 0.0 0.0 0.00 0.00 0.00 99 1015.8
20260510072532 69 0.0 0.0 0.00 0.00 0.00 99 1015.8
20260510071537 68 0.0 0.0 0.00 0.00 0.00 99 1015.9
20260510070520 68 0.0 0.0 0.00 0.00 0.00 99 1016.0
20260510065523 68 0.0 0.0 0.00 0.00 0.00 99 1016.1
20260510064520 68 0.0 0.0 0.00 0.00 0.00 99 1016.0
20260510063518 68 0.0 0.0 0.00 0.00 0.00 99 1016.0
20260510062533 68 0.0 0.0 0.00 0.00 0.00 99 1016.0
20260510061517 68 0.0 0.0 0.00 0.00 0.00 99 1016.1
20260510060521 69 0.0 0.0 0.00 0.00 0.00 99 1016.3
20260510055524 68 0.0 0.0 0.00 0.00 0.00 99 1016.4
20260510054527 68 0.0 0.0 0.00 0.00 0.00 99 1016.5
20260510053530 67 0.0 0.0 0.00 0.00 0.00 99 1016.4
20260510052515 68 0.0 0.0 0.00 0.00 0.00 99 1016.4
20260510051519 68 0.0 0.0 0.00 0.00 0.00 99 1016.3
20260510050522 67 0.0 0.0 0.00 0.00 0.00 99 1016.3
20260510045524 67 0.0 0.0 0.00 0.00 0.00 99 1016.5
20260510044527 67 0.0 0.0 0.00 0.00 0.00 99 1016.5
20260510043530 66 0.0 0.0 0.00 0.00 0.00 99 1016.5
20260510042515 67 0.0 0.0 0.00 0.00 0.00 99 1016.5
20260510041519 66 0.0 0.0 0.00 0.00 0.00 99 1016.4
20260510040522 67 0.0 0.0 0.00 0.00 0.00 99 1016.5
20260510035545 66 0.0 0.0 0.00 0.00 0.00 99 1016.6
20260510034608 66 0.0 0.0 0.00 0.00 0.00 99 1016.5
20260510033525 68 0.0 0.0 0.00 0.00 0.00 99 1016.5
20260510032516 68 0.0 0.0 0.00 0.00 0.00 99 1016.5
20260510031519 68 0.0 0.0 0.00 0.00 0.00 99 1016.5
20260510030516 68 0.0 0.0 0.00 0.00 0.00 99 1016.3
20260510025525 68 0.0 0.0 0.00 0.00 0.00 99 1016.1
20260510024528 69 0.0 0.0 0.00 0.00 0.00 99 1016.2
20260510023532 70 0.0 0.0 0.00 0.00 0.00 99 1015.9
20260510022517 70 0.0 0.0 0.00 0.00 0.00 99 1015.8
20260510021520 70 0.0 0.0 0.00 0.00 0.00 99 1015.7
20260510020543 70 0.0 0.0 0.00 0.00 0.00 99 1015.6
20260510015606 71 0.0 0.0 0.00 0.00 0.00 99 1015.3
20260510014529 72 0.0 0.0 0.00 0.00 0.00 99 1015.0
20260510013532 72 0.0 0.0 0.00 0.00 0.00 99 1014.9
20260510012517 72 0.0 0.0 0.00 0.00 0.00 99 1014.8
20260510011540 72 0.0 0.0 0.00 0.00 0.00 99 1014.7
20260510010524 73 0.0 0.0 0.00 0.00 0.00 99 1014.5
20260510005527 73 0.0 0.0 0.00 0.00 0.00 99 1014.3
20260510004530 74 0.0 0.0 0.00 0.00 0.00 99 1014.1
20260510003515 74 0.0 0.0 0.00 0.00 0.00 99 1014.1
20260510002518 74 0.0 0.0 0.00 0.00 0.00 99 1014.1
20260510001521 75 0.0 0.0 0.00 0.00 0.00 99 1014.1
20260510000524 76 0.0 0.0 0.00 0.00 0.00 99 1013.8
20260509235522 76 0.0 0.0 0.00 0.00 0.00 99 1013.8
20260509234519 77 0.0 0.0 0.00 0.00 0.00 96 1013.6
20260509233536 78 0.0 0.0 0.00 0.00 0.00 94 1013.5
20260509232519 79 0.0 0.0 0.00 0.00 0.00 91 1013.4
20260509231522 77 0.0 0.0 0.00 0.00 0.00 94 1013.3
20260509230525 80 0.0 0.0 0.00 0.00 0.00 85 1013.1
20260509225528 80 0.0 0.0 0.00 0.00 0.00 83 1013.3
20260509224531 81 0.0 0.0 0.00 0.00 0.00 79 1013.3
20260509223536 83 0.0 0.0 0.00 0.00 0.00 77 1013.2
20260509222519 83 0.0 0.0 0.00 0.00 0.00 77 1013.1
20260509221523 83 0.0 0.0 0.00 0.00 0.00 74 1012.9
20260509220526 84 0.0 0.0 0.00 0.00 0.00 71 1012.9
20260509215529 87 0.0 0.0 0.00 0.00 0.00 63 1012.9
20260509214552 85 0.0 0.0 0.00 0.00 0.00 69 1012.8
20260509213517 84 0.0 0.0 0.00 0.00 0.00 70 1012.7
20260509212520 86 0.0 0.0 0.00 0.00 0.00 65 1012.7
20260509211523 87 0.0 0.0 0.00 0.00 0.00 64 1012.8
20260509210526 86 0.0 0.0 0.00 0.00 0.00 64 1012.4
20260509205530 88 143 1.0 4.0 0.00 0.00 0.00 63 1012.7
20260509204547 87 0.0 0.0 0.00 0.00 0.00 63 1012.9
20260509203518 89 0.0 0.0 0.00 0.00 0.00 61 1012.7
20260509202521 86 0.0 0.0 0.00 0.00 0.00 70 1012.7
20260509201538 85 0.0 0.0 0.00 0.00 0.00 73 1012.7
20260509200515 87 0.0 2.0 0.00 0.00 0.00 64 1013.1
20260509195530 88 148 1.0 5.0 0.00 0.00 0.00 65 1012.9
20260509194515 91 0.0 0.0 0.00 0.00 0.00 58 1013.3
20260509193519 89 0.0 1.0 0.00 0.00 0.00 60 1013.4
20260509192522 91 276 2.0 5.0 0.00 0.00 0.00 58 1013.4
20260509191525 89 156 1.0 4.0 0.00 0.00 0.00 61 1013.4
20260509190528 89 215 1.0 4.0 0.00 0.00 0.00 60 1013.6